Regional Weather Roundup
Issued by NWS Wakefield, VA

Home | Current Version | Previous Version | Graphics & Text | Print | Product List | Glossary On
Versions: 1 2 3 4 5 6 7 8 9 10 11 12 13 14 15 16 17 18 19 20 21 22 23 24 25 26 27 28 29 30 31 32 33 34 35 36 37 38 39 40 41 42 43 44 45 46 47 48 49 50
000
ASUS41 KAKQ 251414
RWRAKQ

REGIONAL WEATHER ROUNDUP
NATIONAL WEATHER SERVICE WAKEFIELD VA
1000 AM EDT MON MAY 25 2015

Note: "fair" indicates few or no clouds below 12,000 feet with no
significant weather and/or obstructions to visibility. * = Denotes
station may not report precipitation (e.g., rain,snow,etc.),
thunder or fog.

VAZ042-051-052>054-056-251500-
NORTHERN VIRGINIA

CITY           SKY/WX    TMP DP  RH WIND       PRES   REMARKS
WASH NATIONAL  PTSUNNY   75  61  61 S13       30.28F
DULLES         MOSUNNY   73  59  61 S7        30.27F
FORT BELVOIR   SUNNY     75  60  61 S8        30.28F
QUANTICO       SUNNY     76  59  55 SW12      30.29F
FREDERICKSBRG* SUNNY     77  60  56 SW8G16    30.29F
STAFFORD*      SUNNY     76  57  52 SW10      30.33F
WARRENTON      SUNNY     75  62  64 S9        30.28S
CULPEPER*      SUNNY     73  59  60 SW10      30.29S
MANASSAS*      SUNNY     73  61  64 SW8       30.28F
LEESBURG*      SUNNY     73  61  64 S9        30.27F
WINCHESTER     SUNNY     77  52  41 SW7       30.25F
FRONT ROYAL*   FAIR      73  59  60 SW7       30.25F
LURAY*         FAIR      75  59  57 S12       30.28S
$$

VAZ048-049-060>072-079>083-251500-
CENTRAL AND SOUTH CENTRAL VIRGINIA

CITY           SKY/WX    TMP DP  RH WIND       PRES   REMARKS
RICHMOND       MOSUNNY   76  57  51 SW13      30.33F
CHESTERFIELD*  NOT AVBL
PETERSBURG*    SUNNY     76  57  51 SW10      30.34F
HANOVER        SUNNY     74  58  57 SW10      30.34S
TAPPAHANNOCK*  SUNNY     75  53  47 S9        30.33S
QUINTON*       FAIR      73  59  61 SW7       30.34S
CHARLOTTSVILLE SUNNY     74  58  57 S14       30.29S
GORDONSVILLE*  FAIR      72  59  64 S12G17    30.30S
ORANGE*        SUNNY     73  59  60 S10G17    30.31S
LOUISA*        SUNNY     73  61  64 SW9       30.30S
BUMPASS*       FAIR      73  59  62 SW9       30.31S
FARMVILLE*     SUNNY     73  59  60 SW12G17   30.32F
CREWE*         FAIR      73  58  59 SW7       30.34S
FORT PICKETT*  NOT AVBL
CHASE CITY*    FAIR      75  62  64 S5        30.35S
CLARKSVILLE*   FAIR      72  59  64 SW10      30.35S
SOUTH HILL*    SUNNY     72  59  65 SW9       30.41S
LAWRENCEVILLE* FAIR      73  61  64 MISG      30.35S
EMPORIA*       SUNNY     73  61  64 S8        30.37S
$$

VAZ088>098-251500-
SOUTHEAST VIRGINIA

CITY           SKY/WX    TMP DP  RH WIND       PRES   REMARKS
NORFOLK        SUNNY     76  59  55 SW12      30.35S
VIRGINIA BEACH PTSUNNY   77  62  59 SW10      30.35S
NORFOLK NAVAL  MOSUNNY   79  61  53 S8        30.37R
WEST POINT*    SUNNY     78  56  47 SW10      30.35F
SALUDA*        FAIR      74  59  59 SW10G22   30.33F
NEWPORT NEWS   SUNNY     79  60  52 SW10      30.35S
LANGLEY AFB    SUNNY     74  61  63 SW13      30.34S
FORT EUSTIS    SUNNY     74  60  61 VRB6      30.33S
WILLIAMSBURG*  SUNNY     79  63  57 SW12      30.36S
HR EXEC AP*    FAIR      75  63  64 SW10      30.37S
FRANKLIN*      SUNNY     74  60  60 SW9       30.36S
WAKEFIELD      SUNNY     75  60  59 S8        30.35S
$$

VAZ020-022-025-037-045-251500-
WEST CENTRAL AND SOUTHWEST VIRGINIA

CITY           SKY/WX    TMP DP  RH WIND       PRES   REMARKS
STAUNTON*      SUNNY     74  56  52 SW13      30.32S
WAYNESBORO*    FAIR      71  57  62 W8        30.32S
HOT SPRINGS VA SUNNY     64  52  63 SW7G17    30.37R
LYNCHBURG      SUNNY     71  58  63 SW10G20   30.34S
DANVILLE       SUNNY     72  58  61 SW9       30.35S
SOUTH BOSTON*  FAIR      73  58  60 MISG      30.35S
MARTINSVILLE   MOSUNNY   73  59  61 SW6       30.37S
ROANOKE        MOSUNNY   72  57  59 VRB5      30.34F
BLACKSBURG     MOSUNNY   67  57  70 SW3       30.38S
DUBLIN*        SUNNY     71  58  64 SW13      30.35S
MARION*        SUNNY     71  54  53 S6        30.36S
HILLSVILLE*    SUNNY     64  56  77 S15G23    30.37R
RICHLANDS*     FAIR      69  54  58 S5        30.32S
WISE*          SUNNY     70  52  52 S12       30.32S
ABINGDON*      SUNNY     71  55  55 CALM      30.32S
$$

MDZ021>025-VAZ099-100-251500-
SOUTHERN MARYLAND AND THE DELMARVA PENINSULA

CITY           SKY/WX    TMP DP  RH WIND       PRES   REMARKS
PATUXENT RIVER SUNNY     76  57  51 SW10      30.31F
BAY BRIDGE APT   N/A    N/A N/A N/A S8        30.29F
LEONARDTOWN    SUNNY     73  57  56 SW7       30.32F
DOVER          SUNNY     76  63  63 SW14      30.27F
GEORGETOWN     SUNNY     76  59  55 SW13      30.32F
EASTON         SUNNY     75  63  64 SW12      30.34S
CAMBRIDGE      SUNNY     77  59  53 SW8       30.31F
SALISBURY      SUNNY     75  60  59 W14G20    30.33S
OCEAN CITY     SUNNY     75  61  61 W10       30.34S
WALLOPS ISLAND SUNNY     75  60  59 W13G20    30.35S
ACCOMACK*      SUNNY     73  10   9 SW15      30.35S
$$

NCZ012>017-030>032-251500-
NORTH CENTRAL AND EASTERN NORTH CAROLINA

CITY           SKY/WX    TMP DP  RH WIND       PRES   REMARKS
ROANOKE RAPIDS FAIR      73  59  60 S10       30.36S
RALEIGH        PTSUNNY   74  60  61 S9        30.36S
ELIZABETH CITY SUNNY     75  60  59 S10       30.37S
AHOSKIE*       SUNNY     73  60  64 S8        30.37R
EDENTON*       SUNNY     74  60  61 SW6       30.37S
CURRITUCK*     SUNNY     75  56  51 SW7       30.37F
KILL DEVIL HLS SUNNY     74  58  57 CALM      30.36F
MANTEO         SUNNY     74  54  49 S5        30.38S
CAPE HATTERAS  SUNNY     75  55  49 S7        30.38S
TARBORO*       FAIR      76  61  60 S7        30.37S
GOLDSBORO      SUNNY     76  62  63 S5        30.34S
WASHINGTON     SUNNY     74  59  59 SE7       30.37S
GREENVILLE     SUNNY     77  61  57 SW6       30.37S
NEW BERN       SUNNY     76  58  53 SE7       30.38S
WILMINGTON     SUNNY     76  55  48 S10G17    30.35S
$$

VAZ048-251500-
ELSEWHERE

CITY           SKY/WX    TMP DP  RH WIND       PRES   REMARKS
HARRISBURG PA  SUNNY     75  59  57 SE6       30.24F
BALTIMORE      MOSUNNY   75  59  57 S9        30.27F
ANNAPOLIS      SUNNY     74  59  59 S9        30.28F
ANDREWS AFB    SUNNY     75  60  59 S14       30.28F
PHILADELPHIA   MOSUNNY   76  58  53 SW12      30.28F
HENDERSON NC   SUNNY     73  57  57 SW13      30.36S
GREENSBORO     MOSUNNY   70  57  63 SW13      30.35S
ROCKY MOUNT    SUNNY     75  60  59 SW9       30.36S
$$

VAZ100-251500-
MARINE

STATION/POSITION TIME  TEMP    WIND        PRES    WAVE   SWELL
                       AIR SEA DIR/SP/G            HT/PER HT/PER
                 (UTC) (F)     (DEG/KT/KT) (MB)    (FT/S) (FT/S)
BRANDYWINE LGT   1300   68 64  240/ 15/ 16 1026.6R
CAPE MAY NJ      1300   68 67  210/  6/  8 1026.4R
LEWES DE         1300   72 62  260/ 14/ 19 1026.4R
15NM E FENWICK I 1350   62 60              1027.0S   2/ 4
OCEAN-CITY-INLET 1300   67 63  210/ 10/ 11 1027.0R
WACHAPREAGUE VA  1300   74 69  230/  7/ 12 1027.8R
THOMAS POINT MD  1400   70 65  190/ 11/ 12 1026.0F
GOOSES REEF MD   1400   70 66  240/ 12/ 14 1026.6F   2/ 3
SOLOMONS ISLAND  1300      69                N/A
BISHOPS HEAD MD  1300   69 68  230/ 11/ 14 1026.8R
PINEY POINT MD   1300          260/  7/  9   N/A
CAMBRIDGE MD     1300   72 70  220/  8/ 14 1026.4R
LEWISETTA VA     1300   71 68              1026.6R
RAPPAHANNOCK LGT 1300          200/ 11/ 12 1028.0R
STINGRAY PT      1400   72 69  240/ 12/ 14 1027.3R   1/ 2
YORK RVR RNG VA  1300   72     250/ 10/ 12 1026.9R
YORKTOWN VA      1300   71 71  230/ 10/ 12 1027.1R
JAMESTOWN VA     1400   72 73  250/ 10/ 14 1026.6F
DOMINION TERM VA 1300   69     220/  7/  8 1027.8S
KIPTOPEKE VA     1300      72  250/  4/  5   N/A
CHES BAY BRIDGE  1300   71 69  210/ 12/ 13 1027.3S
CAPE HENRY VA    1300   72     210/  6/  9 1026.6R
CHESAPEAKE LGHT  1300   66     180/ 11/ 12 1028.6S
WILLOUBY STN VA  1300   69     240/ 11/ 12 1028.3S
CAPE HENRY BUOY  1328      65                N/A     1/ 8
1ST LANDING BUOY 1400      68              1027.7R
CAPE CHARLES BUO 1326      67                N/A     1/ 9   2/ 9
OFFSHORE WE BUOY 1311      64                N/A     1/ 9   2/ 9
64NM E OF VA BCH 1350   65 62  170/  4/  6 1028.5S   1/ 8   2/ 8
DUCK PIER NC     1300   68 62  140/  4/  5 1027.6R
44100 DUCK FRF   1324      64                N/A     1/ 8
44056 DUCK FRF   1311      64                N/A     1/ 9
OREGON INLET NC  1300   73 72  170/  5/  9 1028.5R
HATTERAS NC      1300   74 73  150/  5/  8 1028.0R
DIAMOND SHLS NC  1350   73 77  140/  8/ 10 1028.7R   2/ 7   2/ 7
CAPE LOOKOUT NC  1400   73     120/  7/  8 1028.2R
$$



USA.gov is the U.S. government's official web portal to all federal, state and local government web resources and services.